Погода в Львове

Поиск расширенной информации на нашем сайте:

Полезная информация:

Новости сайта



02.01.2020
Опубликован Долгосрочный прогноз погоды по городам России и ближнего зарубежья на январь 2020 года.
Карты: Прогноз на январь и февраль 2020 года, Сравнение прогнозируемой аномалии приземной температуры воздуха на январь 2020 года по разным моделям.




Погода в Львове - сегодня

Время (UTC), дата Ветер
(°,м/с) 
Видим.   Явления Облачность Т
(°С)
Тd
(°С)
f(%) Тe
(°С)
Pmin
(гПа)
dP
(гПа)
Po
(мм)
O2
(г/м3)
Тmin Tmax R s Состояние
почвы
15 09.08.20 060 (СВ) 10 км    8/8 1300 м кучево-дожд. 
[Cb calv]
+26.9 +15.4 49 +37  1016  -0.7  735  266           
18 09.08.20 тихо ()   10 км  гроза, ливневой дождь  9/9 1000 м кучево-дожд. 
[Cb calv]
+19.6 +19 96 +37  1017.6  0.7  735  272    +29.6     
21 09.08.20 тихо ()   10 км  {ливн. осадки}  4/0 средняя 
[Ac trans]
+17.5 +16.5 94 +29  1017.6  -0.2  735  275           
00 10.08.20 тихо ()   10 км  {ливн. осадки}  3/0 средняя 
[Ac trans]
+15.8 +14.9 94 +25  1017.8  0.2  735  277      0.0     
03 10.08.20 тихо ()   10 км    6/0 средняя 
[Ac trans]
+14.7 +14 96 +22  1018.2  0.2  735  278           
06 10.08.20 040 (СВ) 10 км    ясно 
+21.3 +16 72 +32  1017.5  0.2  735  271  +14.4    0.0     
09 10.08.20 360 (С) 10 км    3/3 1000 м 
[Cu hum]
+24.8 +16.2 59 +36  1017  735  268           
12 10.08.20 330 (СЗ) 10 км    6/6 1380 м 
[Cu hum]
+26.9 +15.1 48 +36  1015.9  -0.8  735  266           
15 10.08.20 030 (СВ) 10 км    4/4 1000 м 
[Cu med, cong]
+27.6 +14.3 44 +36  1015  -0.8  734  266           
18 10.08.20 тихо ()   10 км    6/4 1000 м средняя 
[Cu med, cong|Ac trans]
+22.4 +16.1 68 +34  1016.3  0.6  735  270    +28.3       
21 10.08.20 тихо ()   10 км    3/0 верхняя 
[Ci fib]
+18.4 +16.5 89 +30  1017.2  0.5  735  274           
00 11.08.20 тихо ()   10 км    ясно 
+15.6 +14 90 +23  1017.7  735  277           
03 11.08.20 тихо ()   10 км    3/0 верхняя 
[Ci fib]
+14.3 +13.5 95 +21  1018.2  0.3  735  279           
06 11.08.20 тихо ()   10 км    4/0 верхняя 
[Ci fib]
+21.1 +18.1 83 +36  1017.8  0.5  736  271  +14         
09 11.08.20 330 (СЗ) 10 км    8/8 1200 м 
[Cu hum]
+24.4 +15.1 56 +34  1017.4  736  269           
12 11.08.20 240 (ЮЗ) 10 км  гроза, ливневой дождь  9/5 1300 м кучево-дожд., средняя 
[Cb calv|Ac trans]
+22 +15.3 66 +32  1017.5  -0.1  735  271           
15 11.08.20 270 (З) 10 км  {гроза, ливн. осадки}  9/4 1000 м кучево-дожд., средняя 
[Cb calv|Ac trans]
+24.7 +16.9 62 +37  1016.2  -1  735  268           
18 11.08.20 320 (СЗ) 10 км  слаб. ливневой дождь, в посл. час гроза  8/8 1000 м кучево-дожд. 
[Cb calv]
+16.4 +14.7 90 +26  1017.6  0.3  735  276    +27.5  11     
21 11.08.20 тихо ()   10 км  {ливн. осадки}  6/0 верхняя 
[Ci fib]
+15.1 +13.5 90 +22  1018.2  0.5  735  278           
00 12.08.20 тихо ()   4000 м  дымка{ливн. осадки}  3/0 верхняя 
[Ci fib]
+13.7 +12.8 94 +19  1018.7  0.2  735  280         
03 12.08.20 тихо ()   8000 м  в посл. час туман  5/5 60 м 
[St]
+12.7 +12.3 97 +17  1018.7  0.1  735  281           
06 12.08.20 050 (СВ) 10 км  {туман}  ясно 
+17.5 +15.9 90 +30  1018.8  0.8  736  275  +12       
09 12.08.20 030 (СВ) 10 км    3/3 1500 м 
[Cu hum]
+21.4 +16.1 72 +33  1019.3  0.9  737  272           
12 12.08.20 010 (С) 10 км    6/6 1380 м 
[Cu hum]
+23.9 +12.3 48 +29  1018.8  -0.2  737  271           
15 12.08.20 010 (С) 10 км    4/4 1000 м 
[Cu hum]
+23.6 +12.1 48 +28  1018.3  -0.5  736  271           
Время (UTC), дата Ветер
(°,м/с) 
Видим.   Явления Облачность Т
(°С)
Тd
(°С)
f(%) Тe
(°С)
Pmin
(гПа)
dP
(гПа)
Po
(мм)
O2
(г/м3)
Тmin Tmax R s Состояние
почвы

Для получения пояснительной информации подведите курсор к названию столбца.

ПОГОДА в Львове - архив

Всё, что Вы хотите узнать о погоде в Львове - удобно и подробно!

Выберите нужную дату (начиная с 1 января 2019* года) и нажмите кнопку "Найти".
Будут отображены архивные сводки погоды по пункту Львов, начиная с указанной даты.


Отображать данные в формате CSV (для использования в таблицах Excel)


Внимание! Наш архив погоды предназначен исключительно для личного некоммерческого использования в познавательных целях. Если Вам необходимы официальные справки о состоянии погоды (для производственных, юридических, коммерческих и т.п. целей), обращайтесь в органы Росгидромета.

*Примечание: данная дата относится к архиву по метеостанциям СССР (Россия, СНГ, Балтия).
Архив по метеостанциям Зарубежной Европы и Азии (кроме Китая) хранится 10 дней, по другим регионам земного шара (Китай, Африка, Америка, Австралия, Океания) - 1 день.

Львов - район местоположения метеостанции


Название, широта, долгота, высота метеостанции:
Львов 49.8°ш. 23.9°д. 323 м над ур. моря [Украина]

Дополнительная информация

В oтличие oт бoльшинства пoгoдных сайтoв мы публикуем пoдрoбную метеoинфoрмацию в детальнoм прoфессиoнальнoм фoрмате.

Характеристики температуры и влажнoсти вoздуха измеряются на высoте 2 м в тени вдали oт зданий и деревьев.
Скoрoсть ветра измеряется на высoте 10 м (на урoвне рoста челoвека скoрoсть ветра ниже в 1.5-2 раза). Если метеoстанция нахoдится в гoрoде или в лесу, тo скoрoсть ветра занижена на 2-4 м/с пo сравнению с oткрытым местoм. Скoрoсть ветра над акватoриями крупных рек и oзёр, а также на вершинах хoлмoв на 2-5 м/с выше, чем в oбычных услoвиях.
Атмoсфернoе давление в разных тoчках местнoсти мoжет значительнo oтличаться oт давления на метеoстанции, в зависимoсти oт услoвий рельефа (при пoдъёме на 10 м давление пoнижается примернo на 1 мм рт.ст.).